[[{"header":{"parameterUnit":"m.s-1","parameterCategory":1,"la1":30.2992,"la2":30.254,"lo1":-89.0895,"lo2":-89.0443,"dy":0.0025,"dx":0.0025,"nx":19,"ny":19,"refTime":"2026-04-21T03:00:00:Z","depth":0,"parameterNumber":2,"parameterNumberName":"U-component_of_WINDS"},"data":[0,0,0,-3.9102,-3.9106,-3.9274,-3.9275,-3.9486,-3.9488,0,0,0,0,0,0,0,0,0,0,0,-3.9051,-3.9053,-3.9102,-3.9106,-3.9274,-3.9275,-3.9486,-3.9488,0,0,0,0,0,0,0,0,0,0,0,-3.905,-3.9052,-3.9054,-3.9107,-3.9274,-3.9275,-3.9486,-3.9359,0,0,0,0,0,0,0,0,0,0,-3.9196,-3.9149,-3.9052,-3.9054,-3.9108,-3.9274,-3.9275,-3.9353,-3.9367,-3.9409,0,-3.9447,0,-3.9471,-3.9502,-3.9503,0,0,0,-3.9106,-3.9137,-3.9184,-3.9054,-3.9109,-3.9274,-3.9198,-3.9361,-3.9377,-3.9427,-3.945,-3.9458,-3.9474,-3.9504,-3.9505,-3.9744,-3.9745,0,0,-3.9097,-3.9081,-3.9173,-3.9194,-3.9169,-3.9193,-3.9204,-3.9371,-3.9394,-3.945,-3.9463,-3.9478,-3.9505,-3.9507,-3.9743,-3.9744,0,0,0,-3.907,-3.9074,-3.9117,-3.9185,-3.9216,-3.9198,-3.921,-3.9386,-3.9401,-3.9465,-3.948,-3.9506,-3.9509,-3.9741,-3.9743,-3.9779,0,0,0,-3.9064,-3.9058,-3.9112,-3.9104,-3.9213,-3.9304,-3.9222,-3.939,-3.9409,-3.9479,-3.9506,-3.9511,-3.974,-3.9742,-3.9776,-3.9799,0,0,0,-3.904,-3.9056,-3.908,-3.9103,-3.9175,-3.9301,-3.9326,-3.9394,-3.9419,-3.9503,-3.9511,-3.9739,-3.9742,-3.9773,-3.9793,-3.9854,0,0,0,-3.901,-3.9111,-3.908,-3.9199,-3.9173,-3.9324,-3.9325,-3.9438,-3.9515,-3.9507,-3.974,-3.9743,-3.9772,-3.979,-3.9851,-3.9901,-3.9921,0,0,-3.9128,-3.9125,-3.9196,-3.9173,-3.9325,-3.9299,-3.9456,-3.9542,-3.9565,-3.9682,-3.9688,-3.9777,-3.9793,-3.9854,-4.0044,-4.006,0,0,0,-3.9228,-3.9278,-3.9322,-3.9395,-3.9463,-3.9523,-3.9587,-3.9618,-3.9719,-3.9623,-3.9818,-3.9828,-3.9864,-3.9888,-3.9902,-3.9932,-3.9754,-3.9754,-3.9754,-3.937,-3.9394,-3.9512,-3.9557,-3.9627,-3.9692,-3.975,-3.9803,-3.9808,-3.9854,-3.9887,-4.0,-4.0028,-4.0038,-4.007,-3.9918,-3.9919,-3.9919,-3.9919,-3.9543,-3.9617,-3.962,-3.9735,-3.976,-3.9857,-3.9923,-3.9922,-4.0015,-3.9977,-4.001,-3.9963,-4.0055,-4.0084,-3.9922,-3.9921,-3.9921,-3.9921,-3.992,-3.9636,-3.9675,-3.9713,-3.9819,-3.9898,-3.994,-4.0028,-4.0048,-4.0067,-4.01,-4.0136,-4.0136,-4.0135,-4.0117,-4.0117,-4.0118,-4.0118,-4.0118,-4.0119,-3.9716,-3.9757,-3.983,-3.991,-3.9958,-4.0024,-4.009,-4.0138,-4.0196,-4.0203,-4.0203,-4.0201,-4.0061,-4.0023,-4.0125,-4.0124,-4.0123,-4.0122,-4.0122,-3.9877,-3.9844,-3.9955,-4.0004,-4.0099,-4.0174,-4.02,-4.0295,-4.0337,-4.038,-4.0371,-4.0266,-4.0263,-4.0252,-4.0221,-4.0368,-4.0368,-4.0368,-4.0368,-3.9953,-3.9955,-4.0072,-4.0147,-4.0224,-4.0257,-4.038,-4.0432,-4.048,-4.0508,-4.049,-4.0452,-4.044,-4.0444,-4.0429,-4.04,-4.0589,-4.0589,-4.059,-4.0052,-4.0061,-4.0162,-4.0209,-4.0285,-4.0349,-4.0465,-4.055,-4.0598,-4.0599,-4.0529,-4.0519,-4.0457,-4.0437,-4.0432,-4.0409,-4.0356,0,0]},{"header":{"parameterUnit":"m.s-1","parameterCategory":1,"la1":30.2992,"la2":30.254,"lo1":-89.0895,"lo2":-89.0443,"dy":0.0025,"dx":0.0025,"nx":19,"ny":19,"refTime":"2026-04-21T03:00:00:Z","depth":0,"parameterNumber":3,"parameterNumberName":"V-component_of_WINDS"},"data":[0,0,0,4.9761,4.9766,4.9989,4.999,5.0279,5.0282,0,0,0,0,0,0,0,0,0,0,0,4.9701,4.9703,4.976,4.9766,4.9989,4.999,5.0279,5.0282,0,0,0,0,0,0,0,0,0,0,0,4.97,4.9703,4.9705,4.9767,4.9989,4.999,5.0278,5.0107,0,0,0,0,0,0,0,0,0,0,4.989,4.9842,4.9702,4.9706,4.9769,4.9989,4.999,5.0099,5.0118,5.0181,0,5.0242,0,5.0267,5.0302,5.0303,0,0,0,4.9761,4.9826,4.9881,4.9706,4.9771,4.9988,4.9887,5.011,5.0131,5.0206,5.0246,5.0257,5.0272,5.0304,5.0305,5.0695,5.0697,0,0,4.9748,4.9744,4.9866,4.9895,4.9865,4.988,4.9894,5.0122,5.0164,5.0247,5.0263,5.0277,5.0306,5.0308,5.0693,5.0696,0,0,0,4.9717,4.9735,4.9784,4.9883,4.9924,4.9886,4.9903,5.0154,5.0171,5.0266,5.028,5.0307,5.0311,5.0691,5.0694,5.0792,0,0,0,4.9709,4.9717,4.9779,4.9779,4.992,5.0042,4.9929,5.0155,5.0181,5.0278,5.0308,5.0314,5.0689,5.0693,5.0784,5.0837,0,0,0,4.9684,4.9714,4.9749,4.9778,4.9874,5.0039,5.0068,5.016,5.019,5.0303,5.0315,5.0687,5.0692,5.0777,5.0826,5.0937,0,0,0,4.9655,4.9832,4.975,4.9953,4.9872,5.01,5.0067,5.0236,5.0345,5.0309,5.0689,5.0694,5.0775,5.0819,5.0929,5.1026,5.1068,0,0,4.9875,4.9858,4.9978,4.9911,5.0152,5.0066,5.032,5.0423,5.0437,5.0607,5.0617,5.0787,5.0825,5.0935,5.1306,5.1338,0,0,0,5.0045,5.0131,5.0196,5.0302,5.0387,5.0463,5.0529,5.0567,5.0712,5.0525,5.0858,5.0882,5.0946,5.0992,5.102,5.1074,5.0716,5.0716,5.0715,5.0347,5.0358,5.0555,5.0592,5.0695,5.0762,5.0844,5.0906,5.0886,5.0964,5.1013,5.1237,5.1292,5.1313,5.1369,5.1069,5.1069,5.1069,5.107,5.0667,5.0788,5.0759,5.0939,5.0948,5.1098,5.1169,5.1149,5.1288,5.1201,5.1258,5.1159,5.1348,5.1397,5.1077,5.1076,5.1075,5.1074,5.1074,5.0862,5.0922,5.0968,5.1121,5.1237,5.1269,5.1404,5.1408,5.1412,5.1469,5.1519,5.1517,5.1513,5.1493,5.1494,5.1495,5.1496,5.1496,5.1497,5.1045,5.1094,5.1209,5.1316,5.1383,5.1472,5.1542,5.1607,5.168,5.1671,5.1672,5.1641,5.1367,5.1295,5.1509,5.1507,5.1505,5.1504,5.1503,5.1359,5.1289,5.1466,5.1535,5.1659,5.1772,5.1777,5.191,5.1965,5.2031,5.199,5.1788,5.1769,5.1747,5.1687,5.1989,5.1989,5.1989,5.1989,5.1521,5.1514,5.1695,5.1803,5.191,5.1933,5.2129,5.2184,5.2229,5.2263,5.2221,5.2144,5.2122,5.2116,5.2086,5.203,5.2413,5.2413,5.2414,5.1712,5.1716,5.1883,5.193,5.2028,5.211,5.2294,5.2416,5.2454,5.2431,5.2289,5.2271,5.2147,5.2107,5.2076,5.203,5.1928,0,0]}]]